Location: Newark
(51.8900°N, 2.0780°W)
Time: 21:25:08
(UTC+00:00)

Envisat - Pass Details

Date: 01 December 2019
Orbit: 764 x 766 km, 98.1° (Epoch: 12 December)

Event Time Altitude Azimuth Distance (km) Brightness Sun altitude
Rises 16:33:24 0° 124° (SE) 3,227 6.0 -5.0°
Reaches altitude 10° 16:36:03 10° 112° (ESE) 2,304 5.1 -5.4°
Maximum altitude 16:40:05 25° 59° (ENE) 1,532 4.0 -5.9°
Drops below altitude 10° 16:44:09 10° 6° (N) 2,315 5.2 -6.5°
Sets 16:46:49 0° 353° (N) 3,246 6.0 -6.8°
